www.pogodaiklimat.ru

Погода и климат >> Архив погоды >> Австралия >> Западная Австралия >> Джайлс


ПОГОДА в Джайлсе

  • Прогноз погоды в Джайлсе
  • Монитор погоды в Джайлсе

АРХИВ ПОГОДЫ в Джайлсе

Время (UTC), дата Ветер
(напр.,м/с)
 
Видим.   Явления Облачность Т
(С)
Тd
(С)
f
(%)
Тe
(С)
Тes
(С)
Комфортность P
(гПа)
Po
(гПа)
Тmin
(С)
Tmax
(С)
R
(мм)
R24
(мм)
S
(см)
04 19.05 СВ 3 н/о н/о +24.7 +8.5 36 +25 +25 комфорт 1019.3 950.7
05 19.05 С 3 40 км 1/1 2000 м
[Cu hum]
+26.6 +5.0 25 +26 +26 жарко 1018.4 949.9
06 19.05 СЗ 4 н/о н/о +27.6 +3.4 21 +26 +26 жарко 1017.8 949.3
07 19.05 СЗ 4 н/о н/о +27.6 -2.5 14 +25 +25 комфорт 1017.8 949.3
08 19.05 СЗ 3 40 км 1/1 2000 м
[Cu hum]
+27.1 -0.7 16 +25 +25 комфорт 1018.0 949.5
09 19.05 З 3 н/о н/о +24.0 -4.5 15 +22 +22 комфорт 1018.5 950.0
10 19.05 З 3 н/о н/о +21.8 -10.0 11 +20 +20 1018.9 950.3
11 19.05 З 4 40 км ясно +19.2 -8.2 15 +19 +19 1019.6 951.0
12 19.05 З 3 н/о н/о +17.6 -7.1 18 +18 +18 1020.5 951.8
13 19.05 З 3 н/о н/о +16.4 -6.5 20 +16 +16 1020.8 952.1
14 19.05 З 4 н/о н/о +16.8 -7.0 19 +17 +17 1020.8 952.1 +28.3
15 19.05 В 4 н/о н/о +16.4 -5.5 22 +16 +16 1020.9 952.2
16 19.05 В 5 н/о н/о +15.8 -5.4 23 +15 +15 1020.7 952.0
17 19.05 В 5 н/о н/о +15.8 -5.0 24 +15 +15 1020.4 951.7
18 19.05 В 4 н/о н/о +15.2 -4.0 26 +14 +14 1019.9 951.3
19 19.05 В 5 н/о н/о +15.8 -3.6 26 +15 +15 1019.5 950.9
20 19.05 В 4 40 км 6/0
[Ci sp]
+13.1 -2.8 33 +12 +12 1019.3 950.7
21 19.05 СВ 3 н/о н/о +11.2 -3.1 37 +10 +10 1019.4 950.8
22 19.05 С 2 н/о н/о +10.5 -2.0 42 +10 +10 1019.9 951.3
23 19.05 СВ 2 40 км 1/1 2000 м
[Cu hum Ci sp]
+15.4 -1.7 31 +16 +16 1020.5 951.8
00 20.05 СВ 1 н/о н/о +19.7 -1.0 25 +21 +21 комфорт 1020.9 952.2
01 20.05 С 3 н/о н/о +25.5 -3.5 14 +23 +23 комфорт 1021.1 952.4
02 20.05 С 4 40 км ясно +27.0 -2.3 14 +24 +24 комфорт 1020.9 952.2 +10.0
03 20.05 СЗ 4 н/о н/о +28.6 -9.2 8 +25 +25 комфорт 1020.2 951.6
04 20.05 СЗ 4 н/о н/о +29.4 -11.9 6 +25 +25 комфорт 1019.3 950.7
05 20.05 СЗ 4 40 км 1/1 2000 м
[Cu hum]
+29.4 -11.0 6 +25 +25 комфорт 1018.5 950.0
06 20.05 З 3 н/о н/о +29.7 -13.0 5 +25 +25 комфорт 1018.2 949.7
07 20.05 З 5 н/о н/о +29.4 -13.7 5 +25 +25 комфорт 1018.2 949.7
08 20.05 З 6 40 км 1/1 2000 м
[Cu hum]
+28.4 -13.3 6 +24 +24 комфорт 1018.6 950.1
09 20.05 З 3 н/о н/о +25.4 -9.5 9 +22 +22 комфорт 1019.2 950.6
10 20.05 З 3 н/о н/о +22.0 -10.1 11 +20 +20 1019.9 951.3
11 20.05 З 3 40 км 1/0
[Ac trans]
+20.3 -13.6 9 +20 +20 1020.5 951.8
12 20.05 З 1 н/о н/о +18.5 -6.9 17 +20 +20 1021.0 952.3
13 20.05 З 2 н/о н/о +18.8 -14.8 9 +19 +19 1021.1 952.4
14 20.05 З 3 н/о н/о +18.0 -15.5 9 +18 +18 1021.1 952.4 +30.2
15 20.05 З 4 н/о н/о +18.1 -19.3 6 +18 +18 1021.0 952.3
16 20.05 З 4 н/о н/о +18.2 -17.6 7 +18 +18 1020.8 952.1
17 20.05 З 4 н/о 3/0
[]
+17.7 -19.1 7 +17 +17 1020.8 952.1
18 20.05 З 4 н/о н/о +18.3 -23.8 4 +18 +18 1020.7 952.0
19 20.05 В 5 н/о н/о +17.9 -20.5 6 +18 +18 1020.4 951.7
20 20.05 ЮВ 4 30 км 4/0
[Ac trans]
+13.6 -16.4 11 +13 +13 1020.5 951.8
21 20.05 В 4 н/о н/о +13.8 -14.8 12 +13 +13 1020.7 952.0
22 20.05 В 4 н/о н/о +14.3 -14.6 12 +13 +13 1021.1 952.4
23 20.05 В 4 30 км 3/0
[Ac trans]
+17.6 -15.4 9 +18 +18 1021.6 952.9
00 21.05 В 4 н/о н/о +22.7 -17.7 6 +20 +20 1021.9 953.1
01 21.05 В 5 н/о н/о +26.1 -27.4 2 +22 +22 комфорт 1022.1 953.3
02 21.05 В 3 30 км 3/0
[Ac cast]
+27.1 -26.8 2 +23 +23 комфорт 1021.9 953.1 +12.1
03 21.05 В 3 н/о н/о +27.6 -18.3 4 +23 +23 комфорт 1021.1 952.4
04 21.05 СВ 3 н/о н/о +29.2 -41.9 1020.0 951.4
05 21.05 СВ 2 40 км 1/1
[Cu hum]
+29.4 -31.7 1 +25 +25 комфорт 1019.3 950.7
06 21.05 СЗ 1 н/о н/о +30.3 -17.1 4 +26 +26 жарко 1019.1 950.5
07 21.05 ЮЗ 2 н/о н/о +29.9 -16.2 4 +25 +25 комфорт 1019.2 950.6
08 21.05 ЮЗ 4 40 км 1/0
[Ac trans Ci fib]
+29.4 -14.8 5 +25 +25 комфорт 1019.4 950.8
09 21.05 Ю 3 н/о н/о +25.4 -20.5 4 +22 +22 комфорт 1020.1 951.5
10 21.05 Ю 3 н/о н/о +22.0 -16.0 7 +20 +20 1020.8 952.1
11 21.05 ЮВ 3 40 км 1/0
[Ci sp]
+20.0 -18.1 6 +19 +19 1021.5 952.8
12 21.05 ЮВ 4 н/о н/о +19.1 -17.3 7 +19 +19 1021.9 953.1
13 21.05 В 4 н/о н/о +18.4 -16.7 8 +18 +18 1022.3 953.5
14 21.05 В 4 н/о н/о +18.4 -17.7 7 +18 +18 1022.4 953.6 +30.8
15 21.05 В 4 н/о н/о +18.4 -16.7 8 +18 +18 1022.4 953.6
16 21.05 В 4 н/о н/о +17.3 -17.9 8 +17 +17 1022.4 953.6
17 21.05 В 5 н/о н/о +17.0 -18.3 7 +16 +16 1022.3 953.5
18 21.05 В 5 н/о н/о +17.5 -21.8 5 +17 +17 1022.1 953.3
19 21.05 В 5 н/о н/о +14.3 -19.6 8 +13 +13 1022.2 953.4
20 21.05 В 5 30 км ясно +14.5 -18.6 9 +14 +14 1022.1 953.3
21 21.05 В 5 н/о н/о +16.5 -19.9 7 +16 +16 1022.3 953.5
22 21.05 В 5 н/о н/о +15.4 -13.9 12 +15 +15 1022.9 954.1
23 21.05 В 2 30 км 1/0
[Ci fib]
+19.6 -6.1 17 +20 +20 1023.9 955.0
00 22.05 В 4 н/о н/о +23.0 -4.3 16 +21 +21 комфорт 1024.1 955.2
01 22.05 СВ 6 н/о н/о +25.7 +1.9 21 +24 +24 комфорт 1024.4 955.6
02 22.05 СВ 7 н/о н/о +26.7 +2.5 21 +25 +25 комфорт 1024.1 955.2 +13.4
03 22.05 С 7 н/о н/о +28.1 +1.5 18 +26 +26 жарко 1023.4 954.5
04 22.05 С 4 н/о н/о +29.6 +2.5 18 +27 +27 жарко 1022.4 953.6
05 22.05 С 4 40 км 3/3
[Cu hum Ci fib]
+29.2 +0.5 16 +27 +27 жарко 1021.4 952.7
06 22.05 СВ 4 н/о н/о +28.8 +0.4 16 +26 +26 жарко 1021.0 952.3
07 22.05 С 2 н/о н/о +29.4 +2.1 17 +27 +27 жарко 1021.0 952.3
08 22.05 С 1 40 км 5/4
[Sc diur, vesp Ci sp]
+29.2 +1.7 17 +27 +27 жарко 1021.2 952.5
09 22.05 В 3 н/о н/о +26.5 +1.8 20 +25 +25 комфорт 1021.7 953.0
10 22.05 В 3 н/о н/о +25.0 +2.6 23 +24 +24 комфорт 1022.4 953.6
11 22.05 СВ 3 40 км 3/0
[Ci sp]
+24.1 +3.2 26 +23 +23 комфорт 1022.6 953.8
12 22.05 СВ 3 н/о н/о +23.5 +2.8 26 +23 +23 комфорт 1022.6 953.8
13 22.05 В 2 н/о н/о +21.3 +2.4 29 +21 +21 комфорт 1022.5 953.7
14 22.05 СВ 4 н/о н/о +22.1 +2.5 27 +22 +22 комфорт 1022.4 953.6 +30.2
15 22.05 СВ 6 н/о н/о +23.2 +0.4 22 +22 +22 комфорт 1022.5 953.7
16 22.05 В 5 н/о н/о +21.9 +1.1 25 +21 +21 комфорт 1022.4 953.6
17 22.05 СВ 6 н/о н/о +21.9 +1.5 26 +22 +22 комфорт 1022.3 953.5
18 22.05 СВ 6 н/о н/о +21.2 +2.2 28 +21 +21 комфорт 1022.0 953.2
19 22.05 СВ 5 н/о н/о +21.0 +2.2 29 +21 +21 комфорт 1022.2 953.4
20 22.05 СВ 4 40 км 1/0
[Ci sp]
+20.4 +2.4 30 +21 +21 комфорт 1022.8 954.0
21 22.05 В 4 н/о н/о +20.0 +2.7 32 +21 +21 комфорт 1023.1 954.3
22 22.05 В 5 н/о н/о +20.0 +2.0 30 +20 +20 1023.8 954.9
23 22.05 СВ 4 40 км ясно +21.7 +1.7 27 +21 +21 комфорт 1024.1 955.2
00 23.05 СВ 6 н/о н/о +23.6 +0.5 22 +23 +23 комфорт 1024.8 955.8
01 23.05 СВ 7 н/о н/о +24.7 +0.5 20 +23 +23 комфорт 1025.1 956.1
02 23.05 СВ 6 40 км ясно +26.3 -0.3 17 +24 +24 комфорт 1024.4 955.6 +19.8
03 23.05 СВ 6 н/о н/о +26.9 -0.5 17 +25 +25 комфорт 1023.2 954.4
04 23.05 СВ 6 н/о н/о +26.9 +0.4 18 +25 +25 комфорт 1022.4 953.6
05 23.05 В 1 30 км ясно +27.8 +0.4 17 +26 +26 жарко 1021.2 952.5
06 23.05 СВ 2 н/о н/о +27.9 +1.1 18 +26 +26 жарко 1020.8 952.1
07 23.05 ЮВ 3 н/о н/о +28.1 -1.8 14 +25 +25 комфорт 1020.8 952.1
08 23.05 В 2 30 км 1/1
[Cu hum]
+27.3 -1.6 15 +25 +25 комфорт 1021.0 952.3
09 23.05 ЮВ 3 н/о н/о +24.3 -0.7 19 +23 +23 комфорт 1021.4 952.7
10 23.05 ЮВ 3 н/о н/о +22.5 +0.5 23 +22 +22 комфорт 1022.0 953.2
11 23.05 В 4 30 км ясно +21.2 -1.0 23 +21 +21 комфорт 1022.3 953.5
12 23.05 В 4 н/о н/о +22.0 -0.9 22 +21 +21 комфорт 1022.3 953.5
13 23.05 В 4 н/о н/о +21.4 -1.0 22 +21 +21 комфорт 1022.2 953.4
14 23.05 С 1 н/о н/о +18.6 +0.9 30 +20 +20 1022.1 953.3 +28.4
15 23.05 штиль 0 н/о н/о +18.5 0.0 29 +19 +19 1021.9 953.1
16 23.05 В 1 н/о н/о +18.2 -0.2 29 +19 +19 1021.6 952.9
17 23.05 СВ 2 н/о н/о +16.4 +0.1 33 +17 +17 1021.2 952.5
18 23.05 СЗ 1 н/о н/о +16.9 +0.6 33 +18 +18 1020.8 952.1
19 23.05 В 2 н/о н/о +17.3 -1.1 29 +18 +18 1020.1 951.5
20 23.05 СВ 1 40 км 9/0
[Ci sp]
+16.8 -2.5 27 +18 +18 1020.2 951.6
21 23.05 СВ 3 н/о н/о +19.2 -0.4 27 +19 +19 1020.2 951.6
22 23.05 СВ 3 н/о н/о +20.0 -0.4 25 +20 +20 1020.9 952.2
23 23.05 СВ 4 40 км 1/0
[Ci sp]
+20.8 +0.4 26 +21 +21 комфорт 1021.4 952.7
00 24.05 С 5 н/о н/о +22.5 +0.1 23 +22 +22 комфорт 1021.6 952.9
01 24.05 СВ 5 н/о н/о +24.4 +0.3 20 +23 +23 комфорт 1022.0 953.2
02 24.05 С 4 40 км 4/0
[Ac trans Ci sp]
+26.0 -0.9 17 +24 +24 комфорт 1021.5 952.8 +13.3
03 24.05 С 4 н/о н/о +26.8 -2.4 15 +24 +24 комфорт 1020.6 951.9
04 24.05 СЗ 3 н/о н/о +27.4 -1.3 15 +25 +25 комфорт 1019.6 951.0
05 24.05 С 3 40 км 6/0
[Ac trans Ci sp]
+27.8 -1.6 15 +25 +25 комфорт 1018.9 950.3
06 24.05 С 3 н/о н/о +28.5 -4.0 12 +25 +25 комфорт 1018.2 949.7
07 24.05 С 4 н/о н/о +28.1 -4.6 11 +25 +25 комфорт 1018.2 949.7
08 24.05 В 2 40 км 9/0
[Ac trans Cs]
+27.0 -2.3 14 +24 +24 комфорт 1018.4 949.9
09 24.05 СВ 3 н/о н/о +25.1 -0.8 18 +23 +23 комфорт 1018.7 950.2
10 24.05 штиль 0 н/о н/о +22.4 +1.8 26 +22 +22 комфорт 1019.5 950.9
11 24.05 С 1 40 км 5/0
[Ac trans Ci sp]
+21.9 -1.5 21 +21 +21 комфорт 1019.9 951.3
12 24.05 С 1 н/о н/о +20.7 -1.3 23 +22 +22 комфорт 1020.2 951.6
13 24.05 штиль 0 н/о н/о +19.8 +1.0 28 +20 +20 1020.2 951.6
14 24.05 штиль 0 н/о н/о +19.5 -1.8 24 +19 +19 1020.1 951.5 +29.5
15 24.05 В 3 н/о н/о +17.2 -2.1 27 +17 +17 1020.0 951.4
16 24.05 СВ 3 н/о н/о +17.1 -2.6 26 +17 +17 1019.6 951.0
17 24.05 СВ 1 н/о н/о +16.1 -2.6 28 +18 +18 1019.2 950.6
18 24.05 штиль 0 н/о н/о +17.9 -0.3 29 +18 +18 1018.5 950.0
19 24.05 штиль 0 н/о н/о +14.6 -3.1 29 +15 +15 1018.4 949.9
20 24.05 штиль 0 40 км 9/0
[Ci sp]
+15.6 -2.0 30 +16 +16 1018.5 950.0
21 24.05 штиль 0 н/о н/о +17.1 0.0 31 +17 +17 1018.9 950.3
22 24.05 ЮВ 1 н/о н/о +12.4 -2.9 34 +13 +13 1019.5 950.9
23 24.05 ЮЗ 3 40 км 9/0
[Ac trans Ci sp]
+15.0 -3.6 27 +15 +15 1020.4 951.7
00 25.05 С 2 н/о н/о +16.9 -3.1 25 +18 +18 1021.1 952.4
01 25.05 СЗ 2 н/о н/о +21.9 -2.8 19 +21 +21 комфорт 1021.1 952.4
02 25.05 С 3 40 км 3/0
[Ci sp]
+25.6 -2.7 15 +23 +23 комфорт 1020.4 951.7 +12.5
03 25.05 СЗ 3 н/о н/о +27.2 -4.7 12 +24 +24 комфорт 1019.5 950.9
04 25.05 З 2 н/о н/о +29.0 -2.6 13 +26 +26 жарко 1018.4 949.9
05 25.05 ЮЗ 4 40 км осадки на расстоянии 6/0
[Ac trans Ci sp]
+27.8 -4.5 12 +25 +25 комфорт 1017.7 949.2
06 25.05 З 5 н/о н/о +27.3 -5.4 11 +24 +24 комфорт 1017.5 949.0
07 25.05 ЮЗ 4 н/о н/о +27.4 -4.1 12 +24 +24 комфорт 1017.6 949.1
08 25.05 Ю 5 40 км 1/0
[Ac trans]
+26.8 -4.3 13 +24 +24 комфорт 1017.8 949.3
09 25.05 Ю 4 н/о н/о +24.1 -2.3 17 +22 +22 комфорт 1018.5 950.0
10 25.05 Ю 5 н/о н/о +22.1 +1.2 25 +22 +22 комфорт 1019.5 950.9
11 25.05 Ю 5 40 км 1/0
[Ac trans]
+20.6 +2.8 31 +21 +21 комфорт 1020.2 951.6
12 25.05 ЮВ 4 н/о н/о +19.7 +3.4 34 +20 +20 1020.9 952.2
13 25.05 ЮВ 4 н/о н/о +18.2 +3.4 37 +18 +18 1020.9 952.2
14 25.05 ЮВ 4 н/о н/о +17.1 +3.7 41 +17 +17 1020.9 952.2 +29.1
15 25.05 В 4 н/о н/о +16.6 +3.9 43 +16 +16 1020.7 952.0
16 25.05 ЮВ 4 н/о н/о +14.9 +3.9 48 +14 +14 1020.4 951.7
17 25.05 ЮВ 5 н/о н/о +14.0 +3.5 49 +13 +13 1020.1 951.5
18 25.05 В 5 н/о н/о +13.4 +3.5 51 +12 +12 1019.9 951.3
19 25.05 ЮВ 6 н/о н/о +12.6 +3.5 54 +10 +10 1019.6 951.0
20 25.05 ЮВ 3 30 км ясно +10.9 +3.4 60 +10 +10 1020.0 951.4
21 25.05 В 4 н/о н/о +11.2 +3.2 58 +9 +9 1020.0 951.4
22 25.05 В 3 н/о н/о +11.3 +4.2 62 +10 +10 1020.6 951.9
23 25.05 В 4 н/о н/о +13.9 +4.7 54 +13 +13 1021.1 952.4
00 26.05 В 6 н/о н/о +17.8 +5.3 44 +17 +17 1021.5 952.8
01 26.05 В 5 н/о н/о +21.5 +4.9 34 +22 +22 комфорт 1021.4 952.7
02 26.05 В 4 30 км 4/0
[Cc]
+23.1 +3.7 28 +23 +23 комфорт 1021.0 952.3 +11.0
03 26.05 СВ 2 н/о н/о +23.3 +4.0 28 +23 +23 комфорт 1020.2 951.6
04 26.05 Ю 3 н/о н/о +25.1 +2.8 23 +24 +24 комфорт 1019.2 950.6

 

Местоположение метеостанции Джайлс (Западная Австралия, Австралия): широта -25.03 долгота 128.30 высота над уровнем моря 599 м.

В архиве по умолчанию представлена погода в Джайлсе за последнюю неделю. Архивные данные за месяц целиком и за предыдущие месяцы, начиная с января 2011 года, Вы можете получить, выбрав интересующий диапазон дат из раскрывающегося списка и нажав кнопку "Ввод!".


*Определитесь, кто Вы:
робот инопланетянин человек

Внимание! Время в таблицах - всемирное. Для получения местного времени необходимо прибавить поправку, которая равна 8 ч.

Смотрите также архив погоды в соседних городах и на ближайших метеорологических станциях:

Погода в Уорбертоне (Западная Австралия, Австралия) (212 км)
Погода в Кинторе (Северная территория, Австралия) (224 км)
Погода в Юларе (Северная территория, Австралия) (271 км)
Погода в Эрнабелле (Южная Австралия, Австралия) (413 км)
Погода в Раббит Флат (Северная территория, Австралия) (568 км)
Погода в Элис-Спрингсе (Северная территория, Австралия) (581 км)
Погода на Виноградной ферма (Северная территория, Австралия) (614 км)
Погода в Форресте (Западная Австралия, Австралия) (645 км)
Погода в Лавертоне (Западная Австралия, Австралия) (707 км)
Погода в Телфере (Западная Австралия, Австралия) (723 км)

Пояснения к столбцам:

Ветер - указаны скорость ветра в м/с - средняя за 10 мин, порывы в срок и между сроками (в фигурных скобках) и направление, откуда дует ветер: С - северный, СВ - северо-восточный, В - восточный, ЮВ - юго-восточный, Ю - южный, ЮЗ - юго-западный, З - западный, СЗ - северо-западный.
Видимость - горизонтальная дальность видимости в метрах или километрах. При видимости от 1 до 10 км при отсутствии осадков обычно наблюдается дымка, при ухудшении видимости до 1 км и менее - туман. В сухую погоду видимость может ухудшаться дымом, пылью или мглою.
Явления - указаны атмосферные явления, наблюдавшиеся в срок или в последний час перед сроком; фигурными скобками обозначены явления, наблюдавшиеся между сроками (за 1-3 часа до срока); квадратными скобками обозначены град или гололедные отложения с указанием их диаметра в мм.
Облачность - указаны через наклонную черту общая и нижняя облачность в баллах и высота нижней границы облаков в метрах; квадратными скобками обозначены формы облаков: Ci - перистые, Cs - перисто-слоистые, Cc - перисто-кучевые, Ac - высококучевые, As - высокослоистые, Sc - слоисто-кучевые, Ns - слоисто-дождевые, Cu - кучевые, Cb - кучево-дождевые. Подробнее классификацию облаков см. в Атласе облаков (PDF).
T - Температура воздуха - температура, измеренная на высоте 2 м над землей.
Td - Температура точки росы - температура, при понижении до которой содержащийся в воздухе водяной пар достигнет насыщения.
f - Относительная влажность воздуха - влажноcть воздуха, измеренная на высоте 2 м над землей.
Te - Эффективная температура - температура, которую ощущает одетый по сезону человек в тени. Характеристика душности погоды. При расчете учитывается влияние влажности воздуха и скорости ветра на теплоощущения человека.
Tes - Эффективная температура на солнце - температура, которую ощущает человек, с поправкой на солнечный нагрев. Характеристика знойности погоды. Зависит от высоты солнца над горизонтом, облачности и скорости ветра. Ночью, в пасмурную погоду, а также при ветре 12 м/с и более поправка равна нулю.
P - Атмосферное давление - приведенное к уровню моря атмосферное давление.
Po - Атмосферное давление - измеренное на уровне метеостанции атмосферное давление.
Tmin - Минимальная температура - минимум температуры воздуха на высоте 2 м над землей.
Tmax - Максимальная температура - максимум температуры воздуха на высоте 2 м над землей.
R - Количество осадков - Количество выпавших осадков за период времени, мм. При наведении курсора мыши на число - период времени, за который выпало указанное количество осадков.
R24 - Количество осадков - Количество выпавших осадков за 24 часа, мм.
S - Снежный покров - Высота снежного покрова, см. При наведении курсора мыши на число - состояние снежного покрова и степень покрытия местности в баллах.